| time (UTC) | temp F | wind direction | speed MPH | gust MPH | rain 1hr in | rain 24hr in | rain mn in | humidity % | barometer mb |
| 20260504050558 | 62 | 5 | 3.0 | 6.0 | 0.00 | 0.05 | 0.05 | 94 | 862.3 |
| 20260504045559 | 62 | 5 | 2.0 | 4.0 | 0.00 | 0.06 | 0.05 | 94 | 862.1 |
| 20260504045056 | 62 | 5 | 2.0 | 5.0 | 0.00 | 0.06 | 0.05 | 94 | 862.2 |
| 20260504044603 | 62 | 5 | 3.0 | 6.0 | 0.01 | 0.06 | 0.05 | 94 | 862.0 |
| 20260504044056 | 62 | 5 | 3.0 | 8.0 | 0.01 | 0.06 | 0.05 | 94 | 861.8 |
| 20260504043556 | 62 | 5 | 4.0 | 8.0 | 0.01 | 0.06 | 0.05 | 94 | 861.7 |
| 20260504043056 | 62 | 5 | 5.0 | 8.0 | 0.01 | 0.06 | 0.05 | 94 | 861.7 |
| 20260504042556 | 62 | 5 | 3.0 | 5.0 | 0.01 | 0.06 | 0.05 | 94 | 861.8 |
| 20260504042056 | 62 | 5 | 3.0 | 5.0 | 0.01 | 0.06 | 0.05 | 94 | 861.9 |
| 20260504041556 | 62 | 5 | 3.0 | 5.0 | 0.01 | 0.06 | 0.05 | 94 | 862.1 |
| 20260504041056 | 63 | 5 | 3.0 | 5.0 | 0.01 | 0.06 | 0.05 | 94 | 862.1 |
| 20260504040556 | 63 | 5 | 3.0 | 6.0 | 0.01 | 0.06 | 0.05 | 93 | 862.1 |
| 20260504035555 | 64 | 5 | 6.0 | 14.0 | 0.01 | 0.06 | 0.05 | 91 | 862.2 |
| 20260504035055 | 64 | 5 | 4.0 | 10.0 | 0.01 | 0.06 | 0.05 | 91 | 862.1 |
| 20260504034602 | 65 | 5 | 5.0 | 12.0 | 0.00 | 0.05 | 0.04 | 89 | 862.1 |
| 20260504034054 | 66 | 5 | 5.0 | 12.0 | 0.00 | 0.05 | 0.04 | 86 | 862.2 |
| 20260504033554 | 66 | 5 | 4.0 | 12.0 | 0.00 | 0.05 | 0.04 | 86 | 862.0 |
| 20260504033104 | 65 | 5 | 6.0 | 12.0 | 0.00 | 0.05 | 0.04 | 88 | 862.1 |
| 20260504032556 | 63 | 5 | 5.0 | 11.0 | 0.00 | 0.05 | 0.04 | 93 | 862.1 |
| 20260504032154 | 63 | 5 | 5.0 | 14.0 | 0.00 | 0.05 | 0.04 | 93 | 862.0 |
| 20260504031554 | 63 | 5 | 6.0 | 14.0 | 0.00 | 0.05 | 0.04 | 93 | 862.2 |
| 20260504031052 | 62 | 5 | 4.0 | 6.0 | 0.00 | 0.05 | 0.04 | 94 | 862.5 |
| 20260504030555 | 62 | 5 | 4.0 | 5.0 | 0.00 | 0.05 | 0.04 | 94 | 862.4 |
| 20260504030052 | 62 | 5 | 3.0 | 5.0 | 0.00 | 0.05 | 0.04 | 94 | 862.2 |
| 20260504025552 | 62 | 5 | 3.0 | 5.0 | 0.00 | 0.05 | 0.04 | 94 | 862.2 |
| 20260504025052 | 63 | 5 | 2.0 | 5.0 | 0.00 | 0.05 | 0.04 | 93 | 862.3 |
| 20260504024551 | 63 | 5 | 3.0 | 6.0 | 0.00 | 0.05 | 0.04 | 93 | 862.2 |
| 20260504024051 | 64 | 5 | 4.0 | 6.0 | 0.00 | 0.05 | 0.04 | 91 | 862.2 |
| 20260504023551 | 65 | 5 | 1.0 | 10.0 | 0.00 | 0.05 | 0.04 | 89 | 862.0 |
| 20260504023051 | 65 | 5 | 5.0 | 10.0 | 0.00 | 0.05 | 0.04 | 90 | 862.0 |
| 20260504022551 | 64 | 5 | 3.0 | 11.0 | 0.00 | 0.05 | 0.04 | 91 | 861.9 |
| 20260504022052 | 64 | 5 | 4.0 | 11.0 | 0.00 | 0.05 | 0.04 | 91 | 862.0 |
| 20260504021551 | 63 | 5 | 3.0 | 8.0 | 0.00 | 0.05 | 0.04 | 93 | 862.0 |
| 20260504021054 | 63 | 5 | 4.0 | 8.0 | 0.00 | 0.05 | 0.04 | 93 | 862.0 |
| 20260504020553 | 63 | 5 | 3.0 | 9.0 | 0.00 | 0.05 | 0.04 | 93 | 862.0 |
| 20260504020051 | 63 | 5 | 5.0 | 9.0 | 0.00 | 0.05 | 0.04 | 93 | 861.9 |
| 20260504015551 | 63 | 5 | 2.0 | 6.0 | 0.00 | 0.05 | 0.04 | 94 | 861.9 |
| 20260504015053 | 63 | 5 | 0.0 | 5.0 | 0.00 | 0.05 | 0.04 | 94 | 861.9 |
| 20260504014551 | 63 | 5 | 2.0 | 5.0 | 0.00 | 0.05 | 0.04 | 94 | 862.0 |
| 20260504014049 | 63 | 5 | 1.0 | 4.0 | 0.00 | 0.05 | 0.04 | 94 | 861.9 |
| 20260504013550 | 64 | 5 | 1.0 | 8.0 | 0.00 | 0.05 | 0.04 | 94 | 861.9 |
| 20260504013051 | 63 | 5 | 4.0 | 8.0 | 0.00 | 0.05 | 0.04 | 94 | 861.8 |
| 20260504012551 | 63 | 5 | 5.0 | 8.0 | 0.00 | 0.05 | 0.04 | 95 | 861.7 |
| 20260504012050 | 63 | 5 | 4.0 | 6.0 | 0.00 | 0.05 | 0.04 | 95 | 861.8 |
| 20260504011551 | 63 | 5 | 4.0 | 5.0 | 0.00 | 0.05 | 0.04 | 95 | 861.7 |
| 20260504011050 | 63 | 5 | 3.0 | 6.0 | 0.00 | 0.05 | 0.04 | 95 | 862.0 |
| 20260504010549 | 63 | 5 | 3.0 | 6.0 | 0.00 | 0.05 | 0.04 | 95 | 862.1 |
| 20260504010055 | 63 | 5 | 3.0 | 6.0 | 0.00 | 0.05 | 0.04 | 95 | 862.2 |
| 20260504005549 | 64 | 5 | 3.0 | 5.0 | 0.00 | 0.06 | 0.04 | 95 | 862.3 |
| 20260504005049 | 64 | 5 | 1.0 | 3.0 | 0.00 | 0.06 | 0.04 | 95 | 862.5 |
| 20260504004549 | 64 | 5 | 1.0 | 4.0 | 0.00 | 0.06 | 0.04 | 94 | 862.4 |
| 20260504004049 | 64 | 5 | 2.0 | 5.0 | 0.00 | 0.06 | 0.04 | 94 | 862.4 |
| 20260504003552 | 64 | 5 | 2.0 | 5.0 | 0.00 | 0.06 | 0.04 | 94 | 862.5 |
| 20260504003052 | 64 | 5 | 1.0 | 5.0 | 0.00 | 0.06 | 0.04 | 94 | 862.8 |
| 20260504002548 | 64 | 5 | 2.0 | 6.0 | 0.00 | 0.06 | 0.04 | 93 | 862.6 |
| 20260504002048 | 65 | 5 | 2.0 | 11.0 | 0.00 | 0.06 | 0.04 | 93 | 862.6 |
| 20260504001606 | 65 | 5 | 2.0 | 11.0 | 0.00 | 0.06 | 0.04 | 92 | 862.6 |
| 20260504001050 | 66 | 5 | 4.0 | 10.0 | 0.01 | 0.06 | 0.04 | 93 | 862.6 |
| 20260504000547 | 66 | 5 | 2.0 | 5.0 | 0.01 | 0.06 | 0.04 | 94 | 862.3 |
| 20260504000049 | 66 | 5 | 2.0 | 4.0 | 0.01 | 0.06 | 0.04 | 94 | 861.9 |
| 20260503235549 | 66 | 5 | 2.0 | 4.0 | 0.01 | 0.06 | 0.04 | 94 | 861.6 |
| 20260503235050 | 67 | 5 | 2.0 | 4.0 | 0.01 | 0.06 | 0.04 | 94 | 861.3 |
| 20260503234547 | 67 | 5 | 3.0 | 4.0 | 0.01 | 0.06 | 0.04 | 94 | 861.1 |
| 20260503234046 | 67 | 5 | 2.0 | 4.0 | 0.01 | 0.06 | 0.04 | 94 | 860.9 |
| 20260503233547 | 67 | 5 | 3.0 | 4.0 | 0.01 | 0.06 | 0.04 | 94 | 860.8 |
| 20260503233047 | 67 | 5 | 3.0 | 5.0 | 0.01 | 0.06 | 0.04 | 94 | 860.7 |
| 20260503232549 | 67 | 5 | 4.0 | 5.0 | 0.01 | 0.06 | 0.04 | 94 | 860.7 |
| 20260503232046 | 67 | 5 | 4.0 | 5.0 | 0.01 | 0.06 | 0.04 | 94 | 860.7 |
| 20260503231546 | 68 | 5 | 3.0 | 5.0 | 0.01 | 0.06 | 0.04 | 94 | 860.7 |
| 20260503231051 | 68 | 5 | 3.0 | 5.0 | 0.00 | 0.05 | 0.03 | 94 | 860.6 |
| 20260503230544 | 68 | 5 | 3.0 | 4.0 | 0.00 | 0.05 | 0.03 | 94 | 860.7 |
| 20260503230045 | 68 | 5 | 2.0 | 4.0 | 0.00 | 0.05 | 0.03 | 95 | 860.7 |
| 20260503225544 | 68 | 5 | 2.0 | 4.0 | 0.00 | 0.05 | 0.03 | 95 | 860.9 |
| 20260503225047 | 68 | 5 | 0.0 | 0.0 | 0.00 | 0.05 | 0.03 | 94 | 861.0 |
| 20260503224544 | 68 | 5 | 0.0 | 3.0 | 0.00 | 0.05 | 0.03 | 94 | 860.9 |
| 20260503224045 | 68 | 5 | 0.0 | 4.0 | 0.00 | 0.05 | 0.03 | 94 | 861.0 |
| 20260503223544 | 68 | 5 | 2.0 | 4.0 | 0.00 | 0.05 | 0.03 | 94 | 861.0 |
| 20260503223046 | 68 | 5 | 0.0 | 0.0 | 0.00 | 0.05 | 0.03 | 94 | 860.9 |
| 20260503222547 | 68 | 5 | 0.0 | 2.0 | 0.00 | 0.05 | 0.03 | 94 | 861.1 |
| 20260503222043 | 68 | 5 | 0.0 | 3.0 | 0.00 | 0.05 | 0.03 | 94 | 861.0 |
| 20260503221545 | 68 | 5 | 2.0 | 4.0 | 0.00 | 0.05 | 0.03 | 94 | 860.9 |
| 20260503221046 | 69 | 5 | 1.0 | 4.0 | 0.00 | 0.05 | 0.03 | 93 | 861.0 |
| 20260503220543 | 69 | 5 | 1.0 | 2.0 | 0.00 | 0.05 | 0.03 | 93 | 861.1 |
| 20260503215543 | 69 | 5 | 0.0 | 2.0 | 0.00 | 0.05 | 0.03 | 93 | 861.1 |
| 20260503215042 | 70 | 5 | 0.0 | 2.0 | 0.00 | 0.05 | 0.03 | 93 | 861.2 |
| 20260503214545 | 70 | 5 | 0.0 | 1.0 | 0.00 | 0.05 | 0.03 | 92 | 861.1 |
| 20260503214046 | 70 | 5 | 0.0 | 1.0 | 0.00 | 0.05 | 0.03 | 92 | 861.2 |
| 20260503213542 | 71 | 5 | 0.0 | 4.0 | 0.00 | 0.05 | 0.03 | 91 | 861.2 |
| 20260503213047 | 71 | 5 | 1.0 | 5.0 | 0.00 | 0.05 | 0.03 | 90 | 861.3 |
| 20260503212542 | 71 | 5 | 0.0 | 5.0 | 0.00 | 0.05 | 0.03 | 90 | 861.3 |
| 20260503212042 | 71 | 5 | 2.0 | 5.0 | 0.00 | 0.05 | 0.03 | 89 | 861.1 |
| 20260503211558 | 72 | 5 | 0.0 | 3.0 | 0.00 | 0.05 | 0.03 | 89 | 860.9 |
| 20260503211045 | 72 | 5 | 0.0 | 4.0 | 0.00 | 0.05 | 0.03 | 90 | 860.8 |
| 20260503210542 | 72 | 5 | 1.0 | 4.0 | 0.00 | 0.05 | 0.03 | 88 | 860.8 |
| 20260503210042 | 72 | 5 | 1.0 | 4.0 | 0.00 | 0.05 | 0.03 | 89 | 861.0 |
| 20260503205542 | 72 | 5 | 0.0 | 4.0 | 0.00 | 0.06 | 0.03 | 90 | 861.2 |
| 20260503205041 | 72 | 5 | 0.0 | 5.0 | 0.00 | 0.06 | 0.03 | 89 | 861.3 |
| 20260503204540 | 72 | 5 | 2.0 | 5.0 | 0.00 | 0.06 | 0.03 | 89 | 861.3 |
| 20260503204040 | 72 | 5 | 0.0 | 4.0 | 0.00 | 0.06 | 0.03 | 91 | 861.2 |
| 20260503203539 | 71 | 5 | 1.0 | 5.0 | 0.00 | 0.06 | 0.03 | 90 | 861.2 |
| 20260503203040 | 71 | 5 | 3.0 | 5.0 | 0.00 | 0.06 | 0.03 | 90 | 861.3 |
| 20260503202539 | 71 | 5 | 1.0 | 5.0 | 0.00 | 0.06 | 0.03 | 92 | 861.4 |
| 20260503202039 | 71 | 5 | 2.0 | 5.0 | 0.00 | 0.06 | 0.03 | 91 | 861.4 |
| 20260503201539 | 71 | 5 | 0.0 | 3.0 | 0.00 | 0.06 | 0.03 | 91 | 861.5 |
| 20260503201038 | 71 | 5 | 0.0 | 4.0 | 0.00 | 0.06 | 0.03 | 92 | 861.6 |
| 20260503200542 | 70 | 5 | 1.0 | 4.0 | 0.00 | 0.06 | 0.03 | 94 | 861.7 |
| 20260503200039 | 70 | 5 | 0.0 | 4.0 | 0.01 | 0.06 | 0.03 | 92 | 861.7 |
| 20260503195539 | 69 | 5 | 0.0 | 3.0 | 0.01 | 0.06 | 0.03 | 94 | 861.8 |
| 20260503195037 | 69 | 5 | 0.0 | 2.0 | 0.01 | 0.06 | 0.03 | 94 | 861.9 |
| 20260503194538 | 68 | 5 | 0.0 | 1.0 | 0.01 | 0.06 | 0.03 | 94 | 862.0 |
| 20260503194040 | 68 | 5 | 0.0 | 0.0 | 0.01 | 0.06 | 0.03 | 94 | 862.1 |
| 20260503193538 | 68 | 5 | 0.0 | 0.0 | 0.01 | 0.06 | 0.03 | 94 | 862.2 |
| 20260503193043 | 68 | 5 | 0.0 | 6.0 | 0.01 | 0.06 | 0.03 | 92 | 862.2 |
| 20260503192537 | 68 | 5 | 2.0 | 6.0 | 0.01 | 0.06 | 0.03 | 91 | 862.3 |
| 20260503192041 | 69 | 5 | 0.0 | 0.0 | 0.01 | 0.06 | 0.03 | 93 | 862.3 |
| 20260503191538 | 69 | 5 | 0.0 | 0.0 | 0.01 | 0.06 | 0.03 | 93 | 862.4 |
| 20260503191037 | 69 | 5 | 0.0 | 0.0 | 0.01 | 0.06 | 0.03 | 93 | 862.4 |
| 20260503190536 | 69 | 5 | 0.0 | 0.0 | 0.01 | 0.06 | 0.03 | 92 | 862.3 |
| 20260503190037 | 69 | 5 | 0.0 | 2.0 | 0.00 | 0.05 | 0.02 | 92 | 862.4 |
| 20260503185536 | 70 | 5 | 0.0 | 3.0 | 0.00 | 0.05 | 0.02 | 91 | 862.5 |
| 20260503185036 | 70 | 5 | 0.0 | 3.0 | 0.00 | 0.05 | 0.02 | 92 | 862.4 |
| 20260503184536 | 70 | 5 | 0.0 | 2.0 | 0.00 | 0.05 | 0.02 | 92 | 862.6 |
| 20260503184036 | 70 | 5 | 0.0 | 3.0 | 0.00 | 0.05 | 0.02 | 91 | 862.5 |
| 20260503183535 | 70 | 5 | 0.0 | 3.0 | 0.00 | 0.05 | 0.02 | 91 | 862.5 |
| 20260503183040 | 70 | 5 | 0.0 | 0.0 | 0.00 | 0.05 | 0.02 | 92 | 862.7 |
| 20260503182539 | 71 | 5 | 0.0 | 0.0 | 0.00 | 0.05 | 0.02 | 91 | 862.8 |
| 20260503182038 | 71 | 5 | 0.0 | 2.0 | 0.00 | 0.05 | 0.02 | 90 | 862.8 |
| 20260503181611 | 71 | 5 | 0.0 | 2.0 | 0.00 | 0.05 | 0.02 | 90 | 862.8 |
| 20260503181035 | 72 | 5 | 0.0 | 0.0 | 0.00 | 0.05 | 0.02 | 90 | 862.8 |
| 20260503180536 | 72 | 5 | 0.0 | 2.0 | 0.00 | 0.05 | 0.02 | 89 | 862.8 |
| 20260503180040 | 72 | 5 | 0.0 | 4.0 | 0.00 | 0.05 | 0.02 | 88 | 862.9 |
| 20260503175534 | 72 | 5 | 1.0 | 5.0 | 0.00 | 0.05 | 0.02 | 88 | 862.9 |
| 20260503175033 | 72 | 5 | 1.0 | 5.0 | 0.00 | 0.05 | 0.02 | 87 | 863.0 |
| 20260503174533 | 73 | 5 | 0.0 | 5.0 | 0.00 | 0.05 | 0.02 | 87 | 863.0 |
| 20260503174033 | 73 | 5 | 1.0 | 6.0 | 0.00 | 0.05 | 0.02 | 87 | 863.0 |
| 20260503173535 | 73 | 5 | 2.0 | 8.0 | 0.00 | 0.05 | 0.02 | 86 | 863.1 |
| 20260503173050 | 73 | 5 | 1.0 | 9.0 | 0.00 | 0.05 | 0.02 | 84 | 863.1 |
| 20260503172534 | 73 | 5 | 5.0 | 9.0 | 0.00 | 0.05 | 0.02 | 85 | 863.1 |
| 20260503172031 | 73 | 5 | 2.0 | 6.0 | 0.00 | 0.05 | 0.02 | 85 | 863.1 |
| 20260503171530 | 73 | 5 | 0.0 | 6.0 | 0.00 | 0.05 | 0.02 | 86 | 863.1 |
| 20260503171030 | 73 | 5 | 0.0 | 8.0 | 0.00 | 0.05 | 0.02 | 85 | 863.1 |
| 20260503170529 | 73 | 5 | 3.0 | 8.0 | 0.00 | 0.05 | 0.02 | 85 | 863.1 |
| 20260503151013 | 69 | 5 | 0.0 | 3.0 | 0.00 | 0.06 | 0.02 | 93 | 863.1 |
| 20260503150517 | 69 | 5 | 0.0 | 4.0 | 0.00 | 0.06 | 0.02 | 93 | 863.1 |
| 20260503131048 | 63 | 5 | 1.0 | 3.0 | 0.00 | 0.05 | 0.01 | 96 | 862.1 |
| 20260503130548 | 63 | 5 | 2.0 | 3.0 | 0.00 | 0.05 | 0.01 | 96 | 862.0 |
| 20260503110536 | 62 | 5 | 3.0 | 4.0 | 0.00 | 0.06 | 0.01 | 95 | 861.5 |
| 20260503081525 | 61 | 5 | 2.0 | 3.0 | 0.00 | 0.05 | 0.00 | 95 | 861.0 |
| 20260503081025 | 61 | 5 | 2.0 | 4.0 | 0.00 | 0.05 | 0.00 | 95 | 861.1 |
| 20260503080525 | 61 | 5 | 3.0 | 4.0 | 0.00 | 0.05 | 0.00 | 95 | 861.2 |
| 20260503072521 | 62 | 5 | 2.0 | 4.0 | 0.00 | 0.06 | 0.00 | 95 | 861.4 |
| 20260503072020 | 62 | 5 | 2.0 | 4.0 | 0.00 | 0.06 | 0.00 | 95 | 861.4 |
| 20260503071526 | 62 | 5 | 2.0 | 4.0 | 0.00 | 0.06 | 0.00 | 95 | 861.5 |
| 20260503071019 | 62 | 5 | 2.0 | 3.0 | 0.00 | 0.06 | 0.00 | 95 | 861.6 |
| 20260503070518 | 62 | 5 | 2.0 | 4.0 | 0.00 | 0.06 | 0.00 | 95 | 861.6 |